THA1123 VTBS-VTCC

Flight info

Callsign THA1123
Flight time 1h 15m
Altitude 34000
Route OLVUK1J OLVUK Y26 MARNI MARNI2A
Aircraft B77W/H-SDE1E2E3FGHIJ2J3J4J5M1RWXY/LB1D1

Departure

Time 2026-05-08 08:26
Airport Suvarnabhumi Airport (VTBS)

Arrival

Time 2026-05-08 09:42
Airport Chiang Mai International Airport (VTCC)
Time Latitude Longitude Altitude Speed Heading
2026-05-08 08:11 13.68636 100.75386 20 ft 0 kts 284°
2026-05-08 08:17 13.68632 100.75403 20 ft 2 kts 284°
2026-05-08 08:18 13.68628 100.75419 18 ft 2 kts 284°
2026-05-08 08:18 13.68624 100.75435 18 ft 2 kts 279°
2026-05-08 08:18 13.68623 100.75452 18 ft 2 kts 261°
2026-05-08 08:18 13.68629 100.75468 19 ft 2 kts 213°
2026-05-08 08:19 13.68644 100.75474 21 ft 2 kts 194°
2026-05-08 08:19 13.68660 100.75478 20 ft 2 kts 194°
2026-05-08 08:19 13.68671 100.75481 19 ft 1 kts 194°
2026-05-08 08:19 13.68673 100.75481 19 ft 0 kts 194°
2026-05-08 08:20 13.68672 100.75481 19 ft 0 kts 194°
2026-05-08 08:20 13.68669 100.75480 19 ft 1 kts 194°
2026-05-08 08:20 13.68640 100.75472 21 ft 9 kts 194°
2026-05-08 08:21 13.68575 100.75455 18 ft 10 kts 194°
2026-05-08 08:21 13.68514 100.75466 18 ft 10 kts 134°
2026-05-08 08:21 13.68487 100.75530 19 ft 10 kts 105°
2026-05-08 08:21 13.68476 100.75599 18 ft 10 kts 81°
2026-05-08 08:22 13.68528 100.75641 18 ft 10 kts 18°
2026-05-08 08:22 13.68596 100.75661 18 ft 10 kts 15°
2026-05-08 08:22 13.68667 100.75680 18 ft 10 kts 14°
2026-05-08 08:22 13.68736 100.75698 18 ft 10 kts 14°
2026-05-08 08:23 13.68806 100.75716 18 ft 10 kts 14°
2026-05-08 08:23 13.68875 100.75734 18 ft 10 kts 14°
2026-05-08 08:23 13.68944 100.75752 18 ft 10 kts 14°
2026-05-08 08:23 13.69014 100.75771 18 ft 10 kts 14°
2026-05-08 08:24 13.69085 100.75790 18 ft 11 kts 14°
2026-05-08 08:24 13.69161 100.75810 18 ft 12 kts 14°
2026-05-08 08:24 13.69222 100.75858 18 ft 12 kts 75°
2026-05-08 08:24 13.69214 100.75933 17 ft 6 kts 104°
2026-05-08 08:25 13.69203 100.75978 17 ft 7 kts 104°
2026-05-08 08:25 13.69188 100.76031 17 ft 11 kts 111°
2026-05-08 08:25 13.69115 100.76085 17 ft 14 kts 178°
2026-05-08 08:25 13.69055 100.76074 17 ft 6 kts 195°
2026-05-08 08:26 13.68851 100.76020 20 ft 66 kts 194°
2026-05-08 08:26 13.68145 100.75834 18 ft 141 kts 194°
2026-05-08 08:26 13.67030 100.75542 244 ft 175 kts 194°
2026-05-08 08:26 13.65847 100.75223 984 ft 179 kts 194°
2026-05-08 08:27 13.64590 100.75074 1680 ft 185 kts 179°
2026-05-08 08:27 13.63234 100.75110 2116 ft 208 kts 178°
2026-05-08 08:27 13.61683 100.75162 2367 ft 240 kts 178°
2026-05-08 08:27 13.59925 100.75275 2722 ft 261 kts 168°
2026-05-08 08:28 13.58243 100.75993 3442 ft 262 kts 152°
2026-05-08 08:28 13.56491 100.76612 4190 ft 273 kts 163°
2026-05-08 08:28 13.54635 100.77059 5130 ft 275 kts 163°
2026-05-08 08:28 13.52772 100.77530 6088 ft 277 kts 162°
2026-05-08 08:29 13.50901 100.78038 6975 ft 279 kts 162°
2026-05-08 08:29 13.49018 100.78546 7784 ft 281 kts 167°
2026-05-08 08:29 13.47032 100.78498 8409 ft 292 kts 191°
2026-05-08 08:29 13.45101 100.77789 9090 ft 300 kts 211°
2026-05-08 08:30 13.43609 100.76296 9940 ft 304 kts 237°
2026-05-08 08:30 13.42867 100.74250 10577 ft 316 kts 263°
2026-05-08 08:30 13.43720 100.69484 10963 ft 369 kts 286°
2026-05-08 08:31 13.44435 100.66883 11486 ft 384 kts 285°
2026-05-08 08:31 13.45135 100.64192 12201 ft 395 kts 284°
2026-05-08 08:31 13.45988 100.61519 12952 ft 398 kts 297°
2026-05-08 08:31 13.47682 100.59292 13929 ft 397 kts 319°
2026-05-08 08:32 13.50009 100.57763 14735 ft 402 kts 337°
2026-05-08 08:32 13.52727 100.57011 15378 ft 409 kts 356°
2026-05-08 08:32 13.55571 100.57022 16051 ft 411 kts
2026-05-08 08:32 13.58457 100.57169 16743 ft 418 kts
2026-05-08 08:33 13.61382 100.57306 17487 ft 424 kts
2026-05-08 08:33 13.64316 100.57403 18171 ft 430 kts
2026-05-08 08:33 13.67359 100.57483 18860 ft 433 kts
2026-05-08 08:33 13.70341 100.57558 19570 ft 436 kts
2026-05-08 08:34 13.73386 100.57637 20217 ft 440 kts
2026-05-08 08:34 13.76452 100.57637 20731 ft 443 kts 354°
2026-05-08 08:34 13.79454 100.56854 21237 ft 450 kts 335°
2026-05-08 08:34 13.82149 100.55229 21787 ft 451 kts 327°
2026-05-08 08:35 13.84801 100.53465 22335 ft 457 kts 327°
2026-05-08 08:35 13.87498 100.51706 22947 ft 461 kts 328°
2026-05-08 08:35 13.89346 100.50528 23348 ft 464 kts 328°
2026-05-08 08:35 13.93007 100.48226 24012 ft 468 kts 329°
2026-05-08 08:36 13.95913 100.46699 24487 ft 471 kts 339°
2026-05-08 08:36 13.99035 100.45657 24970 ft 473 kts 344°
2026-05-08 08:36 14.01156 100.45044 25258 ft 477 kts 345°
2026-05-08 08:36 14.04326 100.44150 25696 ft 481 kts 345°
2026-05-08 08:37 14.07599 100.43197 26204 ft 483 kts 344°
2026-05-08 08:37 14.10778 100.42228 26737 ft 484 kts 343°
2026-05-08 08:37 14.14017 100.41208 27150 ft 489 kts 343°
2026-05-08 08:37 14.17276 100.40166 27555 ft 493 kts 343°
2026-05-08 08:38 14.20564 100.39115 27938 ft 496 kts 343°
2026-05-08 08:38 14.23867 100.38063 28445 ft 497 kts 343°
2026-05-08 08:38 14.27179 100.37011 28906 ft 499 kts 343°
2026-05-08 08:38 14.30500 100.35957 29350 ft 501 kts 343°
2026-05-08 08:39 14.33839 100.34896 29773 ft 502 kts 343°
2026-05-08 08:39 14.37174 100.33836 30277 ft 500 kts 343°
2026-05-08 08:39 14.40486 100.32782 30839 ft 497 kts 343°
2026-05-08 08:39 14.43777 100.31735 31406 ft 493 kts 343°
2026-05-08 08:40 14.47042 100.30663 31917 ft 492 kts 340°
2026-05-08 08:40 14.50191 100.29277 32355 ft 492 kts 335°
2026-05-08 08:40 14.53236 100.27668 32826 ft 492 kts 333°
2026-05-08 08:40 14.56252 100.26011 33332 ft 490 kts 333°
2026-05-08 08:41 14.59273 100.24397 33781 ft 490 kts 334°
2026-05-08 08:41 14.62339 100.22825 33778 ft 493 kts 335°
2026-05-08 08:41 14.68563 100.19932 33777 ft 487 kts 341°
2026-05-08 08:42 14.74995 100.17859 33799 ft 483 kts 345°
2026-05-08 08:42 14.81431 100.15877 33793 ft 482 kts 344°
2026-05-08 08:43 14.87826 100.13779 33791 ft 482 kts 343°
2026-05-08 08:43 14.94214 100.11636 33791 ft 484 kts 343°
2026-05-08 08:44 15.00603 100.09500 33794 ft 484 kts 343°
2026-05-08 08:44 15.06970 100.07379 33791 ft 484 kts 343°
2026-05-08 08:45 15.13381 100.05246 33793 ft 484 kts 343°
2026-05-08 08:45 15.19800 100.03108 33795 ft 485 kts 343°
2026-05-08 08:46 15.26219 100.00967 33789 ft 485 kts 343°
2026-05-08 08:46 15.32532 99.98860 33789 ft 485 kts 343°
2026-05-08 08:47 15.38954 99.96716 33790 ft 485 kts 343°
2026-05-08 08:47 15.45375 99.94569 33794 ft 485 kts 343°
2026-05-08 08:48 15.51799 99.92422 33789 ft 485 kts 343°
2026-05-08 08:48 15.58223 99.90272 33792 ft 486 kts 343°
2026-05-08 08:49 15.64650 99.88120 33785 ft 485 kts 343°
2026-05-08 08:49 15.71060 99.85972 33786 ft 484 kts 343°
2026-05-08 08:50 15.77463 99.83826 33779 ft 483 kts 343°
2026-05-08 08:50 15.83867 99.81677 33784 ft 485 kts 343°
2026-05-08 08:51 15.90294 99.79519 33784 ft 486 kts 343°
2026-05-08 08:51 15.96748 99.77351 33787 ft 488 kts 343°
2026-05-08 08:52 16.03208 99.75179 33790 ft 490 kts 343°
2026-05-08 08:52 16.09652 99.73011 33784 ft 490 kts 343°
2026-05-08 08:53 16.16138 99.70828 33784 ft 489 kts 343°
2026-05-08 08:53 16.22604 99.68649 33783 ft 487 kts 343°
2026-05-08 08:54 16.29041 99.66479 33777 ft 486 kts 343°
2026-05-08 08:54 16.35462 99.64313 33778 ft 484 kts 343°
2026-05-08 08:55 16.41864 99.62157 33777 ft 483 kts 343°
2026-05-08 08:55 16.48262 99.60002 33777 ft 483 kts 343°
2026-05-08 08:56 16.54654 99.57847 33777 ft 482 kts 343°
2026-05-08 08:56 16.61041 99.55692 33775 ft 482 kts 343°
2026-05-08 08:57 16.67422 99.53537 33785 ft 482 kts 343°
2026-05-08 08:57 16.73806 99.51378 33783 ft 482 kts 342°
2026-05-08 08:58 16.80191 99.49212 33776 ft 483 kts 342°
2026-05-08 08:58 16.86577 99.47044 33776 ft 482 kts 342°
2026-05-08 08:59 16.92963 99.44874 33776 ft 483 kts 342°
2026-05-08 08:59 16.96152 99.43790 33472 ft 483 kts 342°
2026-05-08 08:59 16.99351 99.42703 32921 ft 482 kts 342°
2026-05-08 09:00 17.02507 99.41629 32404 ft 477 kts 342°
2026-05-08 09:00 17.05650 99.40560 31883 ft 473 kts 342°
2026-05-08 09:00 17.08766 99.39499 31369 ft 469 kts 342°
2026-05-08 09:00 17.11858 99.38446 30862 ft 466 kts 342°
2026-05-08 09:01 17.14925 99.37401 30339 ft 463 kts 342°
2026-05-08 09:01 17.17979 99.36361 29801 ft 460 kts 342°
2026-05-08 09:01 17.21016 99.35327 29209 ft 457 kts 342°
2026-05-08 09:01 17.24032 99.34299 28659 ft 454 kts 341°
2026-05-08 09:02 17.27024 99.33278 28136 ft 451 kts 341°
2026-05-08 09:02 17.29993 99.32265 27618 ft 447 kts 341°
2026-05-08 09:02 17.32943 99.31257 27107 ft 445 kts 341°
2026-05-08 09:02 17.35876 99.30256 26602 ft 442 kts 341°
2026-05-08 09:03 17.38789 99.29261 26092 ft 440 kts 341°
2026-05-08 09:03 17.41691 99.28269 25601 ft 438 kts 341°
2026-05-08 09:03 17.44543 99.27295 25094 ft 437 kts 341°
2026-05-08 09:03 17.47463 99.26431 24586 ft 435 kts 345°
2026-05-08 09:04 17.50403 99.25683 24089 ft 434 kts 346°
2026-05-08 09:04 17.53343 99.24963 23582 ft 434 kts 346°
2026-05-08 09:04 17.56279 99.24248 23023 ft 433 kts 346°
2026-05-08 09:04 17.59208 99.23531 22476 ft 431 kts 346°
2026-05-08 09:05 17.62117 99.22812 21972 ft 428 kts 346°
2026-05-08 09:05 17.65006 99.22093 21472 ft 426 kts 345°
2026-05-08 09:05 17.67878 99.21375 20980 ft 423 kts 345°
2026-05-08 09:05 17.70734 99.20659 20491 ft 421 kts 345°
2026-05-08 09:06 17.73574 99.19946 20005 ft 419 kts 345°
2026-05-08 09:06 17.76400 99.19236 19509 ft 417 kts 346°
2026-05-08 09:06 17.79216 99.18530 19005 ft 415 kts 346°
2026-05-08 09:06 17.82008 99.17831 18508 ft 407 kts 345°
2026-05-08 09:07 17.84717 99.17149 18014 ft 394 kts 345°
2026-05-08 09:07 17.87343 99.16488 17485 ft 382 kts 346°
2026-05-08 09:07 17.89888 99.15849 17026 ft 370 kts 345°
2026-05-08 09:07 17.92353 99.15230 16579 ft 359 kts 345°
2026-05-08 09:08 17.94744 99.14628 16149 ft 348 kts 345°
2026-05-08 09:08 17.97074 99.14042 15746 ft 343 kts 345°
2026-05-08 09:08 17.99399 99.13455 15346 ft 346 kts 345°
2026-05-08 09:08 18.01753 99.12862 14939 ft 353 kts 346°
2026-05-08 09:09 18.04155 99.12256 14495 ft 356 kts 346°
2026-05-08 09:09 18.06565 99.11649 14054 ft 356 kts 346°
2026-05-08 09:09 18.08972 99.11043 13617 ft 355 kts 346°
2026-05-08 09:09 18.11373 99.10438 13134 ft 354 kts 346°
2026-05-08 09:10 18.13762 99.10073 12846 ft 342 kts
2026-05-08 09:10 18.16040 99.10531 12819 ft 327 kts 20°
2026-05-08 09:10 18.18059 99.11511 12817 ft 312 kts 26°
2026-05-08 09:10 18.19962 99.12509 12806 ft 299 kts 26°
2026-05-08 09:11 18.21780 99.13451 12810 ft 284 kts 25°
2026-05-08 09:11 18.23488 99.14396 12791 ft 275 kts 36°
2026-05-08 09:11 18.24813 99.15873 12762 ft 283 kts 53°
2026-05-08 09:11 18.25976 99.17516 12625 ft 283 kts 53°
2026-05-08 09:12 18.27147 99.19164 12487 ft 278 kts 53°
2026-05-08 09:12 18.28317 99.20794 12355 ft 273 kts 52°
2026-05-08 09:12 18.29452 99.22365 12340 ft 267 kts 52°
2026-05-08 09:12 18.30588 99.23933 12297 ft 272 kts 52°
2026-05-08 09:13 18.31739 99.25502 12181 ft 275 kts 48°
2026-05-08 09:13 18.33260 99.26687 12069 ft 273 kts 20°
2026-05-08 09:13 18.35050 99.27323 11993 ft 273 kts 18°
2026-05-08 09:13 18.36862 99.27958 11875 ft 276 kts 18°
2026-05-08 09:14 18.38688 99.28608 11763 ft 278 kts 18°
2026-05-08 09:14 18.40514 99.29214 11625 ft 271 kts
2026-05-08 09:14 18.42359 99.29146 11504 ft 264 kts 348°
2026-05-08 09:14 18.44168 99.28750 11426 ft 268 kts 348°
2026-05-08 09:15 18.46018 99.28365 11322 ft 273 kts 348°
2026-05-08 09:15 18.47871 99.27908 11171 ft 273 kts 336°
2026-05-08 09:15 18.49394 99.26747 11071 ft 272 kts 307°
2026-05-08 09:15 18.50221 99.24969 10839 ft 274 kts 280°
2026-05-08 09:16 18.50187 99.22984 10551 ft 271 kts 255°
2026-05-08 09:16 18.49452 99.21192 10262 ft 265 kts 241°
2026-05-08 09:16 18.48575 99.19486 9974 ft 267 kts 241°
2026-05-08 09:16 18.47658 99.17718 9685 ft 283 kts 241°
2026-05-08 09:17 18.46704 99.15865 9508 ft 291 kts 241°
2026-05-08 09:17 18.45752 99.13999 9351 ft 289 kts 241°
2026-05-08 09:17 18.44813 99.12151 9055 ft 279 kts 241°
2026-05-08 09:17 18.43917 99.10385 8731 ft 269 kts 241°
2026-05-08 09:18 18.43090 99.08614 8116 ft 270 kts 252°
2026-05-08 09:18 18.42910 99.06696 7810 ft 258 kts 272°
2026-05-08 09:18 18.42949 99.04827 7576 ft 254 kts 270°
2026-05-08 09:18 18.42961 99.02968 7344 ft 254 kts 270°
2026-05-08 09:19 18.42967 99.01102 7117 ft 255 kts 270°
2026-05-08 09:19 18.43005 98.99291 6895 ft 256 kts 278°
2026-05-08 09:19 18.43658 98.97599 6648 ft 247 kts 311°
2026-05-08 09:19 18.44989 98.96547 6372 ft 236 kts 340°
2026-05-08 09:20 18.46545 98.96173 6110 ft 227 kts 358°
2026-05-08 09:20 18.48124 98.96151 6102 ft 232 kts
2026-05-08 09:20 18.49764 98.96183 6082 ft 238 kts
2026-05-08 09:20 18.51424 98.96212 6024 ft 239 kts
2026-05-08 09:21 18.53100 98.96226 5688 ft 243 kts
2026-05-08 09:21 18.54798 98.96232 5169 ft 245 kts
2026-05-08 09:22 18.63795 98.96253 3194 ft 205 kts
2026-05-08 09:23 18.65653 98.96259 2814 ft 190 kts
2026-05-08 09:23 18.66493 98.96263 2679 ft 175 kts
2026-05-08 09:23 18.67667 98.96266 2450 ft 161 kts
2026-05-08 09:23 18.68757 98.96267 2286 ft 155 kts
2026-05-08 09:24 18.69849 98.96271 2089 ft 159 kts
2026-05-08 09:24 18.70950 98.96275 1878 ft 157 kts
2026-05-08 09:24 18.72035 98.96273 1689 ft 155 kts
2026-05-08 09:24 18.73113 98.96281 1471 ft 155 kts 359°
2026-05-08 09:25 18.74188 98.96284 1273 ft 154 kts 359°
2026-05-08 09:25 18.75259 98.96288 1093 ft 157 kts 359°
2026-05-08 09:25 18.76406 98.96295 1671 ft 157 kts 359°
2026-05-08 09:25 18.77497 98.96295 2102 ft 157 kts
2026-05-08 09:26 18.78585 98.96350 2412 ft 157 kts 14°
2026-05-08 09:26 18.79584 98.96807 2554 ft 158 kts 35°
2026-05-08 09:26 18.80488 98.97448 2673 ft 157 kts 46°
2026-05-08 09:26 18.81022 98.98501 2894 ft 178 kts 68°
2026-05-08 09:27 18.81634 98.99802 3187 ft 218 kts 62°
2026-05-08 09:27 18.82419 99.01277 3818 ft 233 kts 61°
2026-05-08 09:27 18.83234 99.02770 4879 ft 236 kts 60°
2026-05-08 09:27 18.84003 99.04290 5800 ft 237 kts 72°
2026-05-08 09:28 18.84134 99.06021 6417 ft 244 kts 102°
2026-05-08 09:28 18.83389 99.07614 6600 ft 246 kts 133°
2026-05-08 09:28 18.81932 99.08520 6604 ft 248 kts 168°
2026-05-08 09:28 18.80236 99.08634 6620 ft 249 kts 179°
2026-05-08 09:29 18.78490 99.08632 6617 ft 251 kts 179°
2026-05-08 09:29 18.76747 99.08621 6604 ft 250 kts 179°
2026-05-08 09:29 18.75010 99.08606 6595 ft 249 kts 179°
2026-05-08 09:29 18.73287 99.08593 6595 ft 247 kts 179°
2026-05-08 09:30 18.71571 99.08580 6593 ft 246 kts 179°
2026-05-08 09:30 18.69864 99.08570 6596 ft 245 kts 179°
2026-05-08 09:30 18.68162 99.08562 6598 ft 245 kts 179°
2026-05-08 09:30 18.66460 99.08554 6606 ft 245 kts 179°
2026-05-08 09:31 18.64747 99.08547 6614 ft 247 kts 179°
2026-05-08 09:31 18.63020 99.08540 6611 ft 249 kts 179°
2026-05-08 09:31 18.61280 99.08535 6612 ft 251 kts 179°
2026-05-08 09:31 18.59528 99.08529 6613 ft 252 kts 179°
2026-05-08 09:32 18.57770 99.08523 6613 ft 253 kts 179°
2026-05-08 09:32 18.56009 99.08516 6602 ft 253 kts 179°
2026-05-08 09:32 18.54252 99.08510 6600 ft 252 kts 179°
2026-05-08 09:32 18.52505 99.08504 6597 ft 251 kts 179°
2026-05-08 09:33 18.50767 99.08498 6593 ft 249 kts 179°
2026-05-08 09:33 18.49038 99.08493 6594 ft 248 kts 179°
2026-05-08 09:33 18.47316 99.08488 6596 ft 250 kts 179°
2026-05-08 09:33 18.45519 99.08395 6599 ft 267 kts 192°
2026-05-08 09:34 18.43832 99.07536 6607 ft 275 kts 220°
2026-05-08 09:34 18.42717 99.05919 6609 ft 276 kts 249°
2026-05-08 09:34 18.42416 99.03938 6602 ft 274 kts 272°
2026-05-08 09:34 18.42560 99.01931 6612 ft 276 kts 275°
2026-05-08 09:35 18.42711 98.99923 6597 ft 271 kts 274°
2026-05-08 09:35 18.42849 98.97986 6580 ft 260 kts 274°
2026-05-08 09:35 18.42962 98.96120 6576 ft 251 kts 272°
2026-05-08 09:35 18.43506 98.94444 6333 ft 255 kts 311°
2026-05-08 09:36 18.44984 98.93392 6072 ft 256 kts 342°
2026-05-08 09:36 18.46810 98.93103 5618 ft 274 kts
2026-05-08 09:36 18.48624 98.93551 5254 ft 268 kts 19°
2026-05-08 09:36 18.50309 98.94379 4939 ft 259 kts 24°
2026-05-08 09:37 18.52007 98.94704 4803 ft 250 kts 355°
2026-05-08 09:37 18.53698 98.94539 4660 ft 246 kts 11°
2026-05-08 09:37 18.54704 98.94836 4567 ft 244 kts 22°
2026-05-08 09:37 18.56083 98.95433 4521 ft 240 kts 25°
2026-05-08 09:38 18.57628 98.96129 4292 ft 243 kts 19°
2026-05-08 09:38 18.59279 98.96313 3973 ft 235 kts 357°
2026-05-08 09:38 18.60866 98.96235 3718 ft 221 kts
2026-05-08 09:38 18.62366 98.96244 3442 ft 207 kts
2026-05-08 09:39 18.63741 98.96252 3164 ft 188 kts
2026-05-08 09:39 18.64998 98.96256 2950 ft 172 kts
2026-05-08 09:39 18.66139 98.96261 2719 ft 156 kts
2026-05-08 09:39 18.67240 98.96264 2564 ft 161 kts
2026-05-08 09:40 18.68363 98.96267 2350 ft 161 kts
2026-05-08 09:40 18.69478 98.96270 2151 ft 160 kts
2026-05-08 09:40 18.70580 98.96274 1955 ft 157 kts
2026-05-08 09:40 18.71663 98.96281 1737 ft 154 kts
2026-05-08 09:41 18.72735 98.96280 1554 ft 154 kts
2026-05-08 09:41 18.73806 98.96277 1346 ft 152 kts
2026-05-08 09:41 18.74853 98.96286 1154 ft 151 kts
2026-05-08 09:41 18.75897 98.96286 1037 ft 143 kts
2026-05-08 09:42 18.76737 98.96288 1035 ft 94 kts
2026-05-08 09:42 18.77209 98.96289 1034 ft 46 kts
2026-05-08 09:42 18.77486 98.96318 1034 ft 38 kts 17°
2026-05-08 09:42 18.77660 98.96420 1035 ft 16 kts 31°
2026-05-08 09:43 18.77699 98.96491 1036 ft 12 kts 119°
2026-05-08 09:43 18.77620 98.96519 1036 ft 12 kts 177°
2026-05-08 09:43 18.77534 98.96520 1035 ft 12 kts 180°
2026-05-08 09:43 18.77448 98.96520 1034 ft 12 kts 179°
2026-05-08 09:44 18.77362 98.96520 1036 ft 12 kts 180°
2026-05-08 09:44 18.77277 98.96519 1034 ft 12 kts 180°
2026-05-08 09:44 18.77191 98.96519 1035 ft 12 kts 180°
2026-05-08 09:44 18.77118 98.96557 1036 ft 12 kts 132°
2026-05-08 09:45 18.77052 98.96616 1035 ft 12 kts 148°
2026-05-08 09:45 18.76978 98.96643 1036 ft 5 kts 170°
2026-05-08 09:45 18.76940 98.96646 1036 ft 6 kts 178°
2026-05-08 09:45 18.76909 98.96672 1036 ft 6 kts 111°
2026-05-08 09:46 18.76907 98.96708 1036 ft 0 kts 89°
2026-05-08 09:46 18.76907 98.96714 1035 ft 0 kts 89°
2026-05-08 09:46 18.76908 98.96727 1035 ft 0 kts 89°